WW9M Weather Reports


time (UTC)temp
C
wind
direction
speed
KPH
gust
KPH
rain 1hr
cm
rain 24hr
cm
rain mn
cm
humidity
%
barometer
mb
20260906080503 23 70 0.0 1.6 0.00 0.00 0.00 94 1013.3
20260906075504 23 79 0.0 1.6 0.00 0.00 0.00 94 1013.4
20260906075001 23 78 0.0 1.6 0.00 0.00 0.00 94 1013.4
20260906074500 23 78 0.0 1.6 0.00 0.00 0.00 94 1013.5
20260906073502 23 82 0.0 1.6 0.00 0.00 0.00 94 1013.4
20260906073005 23 82 0.0 1.6 0.00 0.00 0.00 94 1013.3
20260906072500 23 87 0.0 1.6 0.00 0.00 0.00 94 1013.4
20260906072002 23 92 0.0 1.6 0.00 0.00 0.00 94 1013.5
20260906071004 23 93 0.0 0.0 0.00 0.00 0.00 94 1013.4
20260906070500 23 93 0.0 0.0 0.00 0.00 0.00 94 1013.5
20260906070005 22 93 0.0 0.0 0.00 0.00 0.00 94 1013.5
20260906065505 22 93 0.0 0.0 0.00 0.00 0.00 94 1013.5
20260906065003 22 93 0.0 0.0 0.00 0.00 0.00 94 1013.4
20260906064504 22 93 0.0 0.0 0.00 0.00 0.00 93 1013.5
20260906064002 22 92 0.0 0.0 0.00 0.00 0.00 93 1013.6
20260906063002 23 93 0.0 0.0 0.00 0.00 0.00 93 1013.5
20260906062502 23 93 0.0 0.0 0.00 0.00 0.00 93 1013.7
20260906062003 23 93 0.0 0.0 0.00 0.00 0.00 93 1013.7
20260906061503 23 93 0.0 0.0 0.00 0.00 0.00 92 1013.7
20260906061002 23 93 0.0 0.0 0.00 0.00 0.00 92 1013.7
20260906060502 23 93 0.0 0.0 0.00 0.00 0.00 92 1013.6
20260906055502 23 93 0.0 0.0 0.00 0.00 0.00 91 1013.7
20260906055003 23 93 0.0 0.0 0.00 0.00 0.00 91 1013.7
20260906054502 23 93 0.0 0.0 0.00 0.00 0.00 91 1013.6
20260906054002 23 93 0.0 0.0 0.00 0.00 0.00 91 1013.5
20260906053502 23 93 0.0 0.0 0.00 0.00 0.00 90 1013.6
20260906053002 23 93 0.0 0.0 0.00 0.00 0.00 90 1013.6
20260906052502 23 92 0.0 0.0 0.00 0.00 0.00 90 1013.5
20260906051503 23 93 0.0 0.0 0.00 0.00 0.00 89 1013.5
20260906051005 23 93 0.0 0.0 0.00 0.00 0.00 89 1013.5
20260906050503 23 93 0.0 0.0 0.00 0.00 0.00 89 1013.4
20260906050002 23 93 0.0 0.0 0.00 0.00 0.00 89 1013.3
20260906045502 23 93 0.0 0.0 0.00 0.00 0.00 89 1013.3
20260906045002 23 93 0.0 0.0 0.00 0.00 0.00 89 1013.2
20260906044504 24 93 0.0 1.6 0.00 0.00 0.00 89 1013.2
20260906043502 24 93 0.0 0.0 0.00 0.00 0.00 89 1013.1
20260906043002 24 94 0.0 0.0 0.00 0.00 0.00 89 1013.1
20260906042001 24 94 0.0 0.0 0.00 0.00 0.00 88 1012.9
20260906041503 24 94 0.0 1.6 0.00 0.00 0.00 88 1012.9
20260906041000 24 94 0.0 1.6 0.00 0.00 0.00 86 1012.8
20260906040005 25 94 0.0 1.6 0.00 0.00 0.00 86 1012.6
20260906035502 25 94 0.0 1.6 0.00 0.00 0.00 85 1012.7
20260906035003 25 75 0.0 1.6 0.00 0.00 0.00 85 1012.7
20260906034502 25 75 0.0 0.0 0.00 0.00 0.00 85 1012.8
20260906034003 25 75 0.0 1.6 0.00 0.00 0.00 84 1012.7
20260906033503 25 75 0.0 1.6 0.00 0.00 0.00 84 1012.8
20260906033003 25 75 0.0 1.6 0.00 0.00 0.00 83 1012.8
20260906032503 25 77 0.0 0.0 0.00 0.00 0.00 83 1012.7
20260906032003 25 77 0.0 0.0 0.00 0.00 0.00 83 1012.7
20260906031005 25 77 0.0 1.6 0.00 0.00 0.00 83 1013.0
20260906030505 25 104 0.0 1.6 0.00 0.00 0.00 82 1012.9
20260906030005 25 104 0.0 1.6 0.00 0.00 0.00 82 1012.9
20260906025004 26 66 0.0 3.2 0.00 0.00 0.00 82 1012.7
20260906024503 26 69 0.0 1.6 0.00 0.00 0.00 82 1012.7
20260906024002 26 69 0.0 1.6 0.00 0.00 0.00 81 1012.7
20260906023505 26 66 0.0 1.6 0.00 0.00 0.00 81 1012.8
20260906023004 26 66 0.0 1.6 0.00 0.00 0.00 81 1012.9
20260906022505 26 66 0.0 1.6 0.00 0.00 0.00 80 1012.7
20260906021503 26 65 0.0 1.6 0.00 0.00 0.00 80 1012.6
20260906021006 26 63 0.0 1.6 0.00 0.00 0.00 80 1012.6
20260906020502 27 64 0.0 1.6 0.00 0.00 0.00 80 1012.5
20260906015502 27 63 0.0 1.6 0.00 0.00 0.00 81 1012.5
20260906014502 27 77 0.0 1.6 0.00 0.00 0.00 82 1012.2
20260906014002 27 78 0.0 3.2 0.00 0.00 0.00 82 1012.2
20260906013502 27 121 0.0 3.2 0.00 0.00 0.00 83 1012.0
20260906013002 27 117 0.0 3.2 0.00 0.00 0.00 84 1012.0
20260906012500 26 92 0.0 3.2 0.00 0.00 0.00 88 1011.9
20260906011002 27 229 0.0 0.0 0.00 0.00 0.00 89 1011.4
20260906010500 27 229 0.0 0.0 0.00 0.00 0.00 88 1011.3
20260906005002 27 228 0.0 0.0 0.00 0.00 0.00 87 1011.1
20260906004503 27 229 0.0 0.0 0.00 0.00 0.00 86 1011.1
20260906003501 27 229 0.0 0.0 0.00 0.00 0.00 86 1011.1
20260906003002 27 229 0.0 0.0 0.00 0.00 0.00 85 1011.0
20260906002500 28 229 0.0 0.0 0.00 0.00 0.00 85 1011.1
20260906001503 28 229 0.0 0.0 0.00 0.00 0.00 84 1011.1
20260906000502 28 229 0.0 0.0 0.00 0.00 0.00 83 1011.0
20260906000001 28 228 0.0 0.0 0.00 0.00 0.00 82 1011.0
20260905235003 29 228 0.0 0.0 0.00 0.00 0.00 80 1011.1
20260905234504 29 229 0.0 0.0 0.00 0.00 0.00 80 1011.1
20260905234002 30 229 0.0 0.0 0.00 0.00 0.00 80 1011.1
20260905233503 30 229 0.0 0.0 0.00 0.00 0.00 80 1011.1
20260905233003 30 229 0.0 0.0 0.00 0.00 0.00 79 1011.2
20260905232004 30 229 0.0 0.0 0.00 0.00 0.00 78 1011.4
20260905231500 30 229 0.0 0.0 0.00 0.00 0.00 78 1011.5
20260905231002 30 229 0.0 0.0 0.00 0.00 0.00 77 1011.6
20260905230503 30 229 0.0 0.0 0.00 0.00 0.00 77 1011.5
20260905230004 30 229 0.0 0.0 0.00 0.00 0.00 77 1011.3
20260905225503 30 229 0.0 0.0 0.00 0.00 0.00 77 1011.2
20260905225003 30 228 0.0 0.0 0.00 0.00 0.00 77 1011.2
20260905224503 30 229 0.0 0.0 0.00 0.00 0.00 76 1011.1
20260905224003 31 228 0.0 0.0 0.00 0.00 0.00 75 1011.1
20260905223003 31 229 0.0 0.0 0.00 0.00 0.00 75 1010.9
20260905222503 31 229 0.0 0.0 0.00 0.00 0.00 74 1010.9
20260905222002 31 229 0.0 0.0 0.00 0.00 0.00 73 1011.0
20260905221503 31 229 0.0 0.0 0.00 0.00 0.00 72 1010.9
20260905221003 31 229 0.0 0.0 0.00 0.00 0.00 72 1010.9
20260905220503 31 229 0.0 0.0 0.00 0.00 0.00 71 1011.0
20260905220005 32 229 0.0 0.0 0.00 0.00 0.00 70 1010.9
20260905215502 32 228 0.0 0.0 0.00 0.00 0.00 68 1011.1
20260905215003 32 229 0.0 0.0 0.00 0.00 0.00 67 1011.1
20260905214505 32 228 0.0 0.0 0.00 0.00 0.00 66 1011.2
20260905214003 32 229 0.0 1.6 0.00 0.00 0.00 66 1011.1
20260905213002 33 34 0.0 3.2 0.00 0.00 0.00 63 1011.2
20260905211504 34 30 1.6 4.8 0.00 0.00 0.00 60 1011.0
20260905211003 34 29 1.6 4.8 0.00 0.00 0.00 63 1011.1
20260905205003 35 241 0.0 3.2 0.00 0.00 0.00 59 1011.4
20260905204000 35 174 1.6 4.8 0.00 0.00 0.00 60 1011.5
20260905203500 35 13 1.6 4.8 0.00 0.00 0.00 58 1011.5
20260905203004 35 221 0.0 3.2 0.00 0.00 0.00 59 1011.6
20260905202502 35 309 0.0 3.2 0.00 0.00 0.00 58 1011.7
20260905202002 35 158 0.0 3.2 0.00 0.00 0.00 58 1011.7
20260905201502 35 236 1.6 3.2 0.00 0.00 0.00 60 1011.8
20260905201002 35 360 1.6 3.2 0.00 0.00 0.00 60 1011.8
20260905200502 35 220 1.6 3.2 0.00 0.00 0.00 60 1011.8
20260905200000 35 220 1.6 4.8 0.00 0.00 0.00 61 1011.9
20260905195501 35 117 1.6 4.8 0.00 0.00 0.00 58 1011.9
20260905195002 35 2 1.6 4.8 0.00 0.00 0.00 55 1011.9
20260905194503 35 130 0.0 3.2 0.00 0.00 0.00 53 1012.0
20260905193001 36 292 0.0 1.6 0.00 0.00 0.00 57 1012.1
20260905192502 35 357 1.6 4.8 0.00 0.00 0.00 53 1012.2
20260905192000 35 115 1.6 4.8 0.00 0.00 0.00 53 1012.3
20260905191501 35 230 1.6 3.2 0.00 0.00 0.00 54 1012.3
20260905190502 35 78 1.6 6.4 0.00 0.00 0.00 53 1012.4
20260905190000 35 234 1.6 6.4 0.00 0.00 0.00 54 1012.4
20260905185004 35 298 1.6 3.2 0.00 0.00 0.00 55 1012.6
20260905184000 35 61 1.6 3.2 0.00 0.00 0.00 53 1012.8
20260905183002 35 21 1.6 3.2 0.00 0.00 0.00 54 1013.1
20260905182502 35 6 1.6 3.2 0.00 0.00 0.00 54 1013.1
20260905182002 35 18 1.6 3.2 0.00 0.00 0.00 53 1013.1
20260905181002 34 140 0.0 3.2 0.00 0.00 0.00 54 1013.0
20260905180502 34 75 0.0 3.2 0.00 0.00 0.00 56 1013.0
20260905175501 34 228 1.6 4.8 0.00 0.00 0.00 53 1013.2
20260905175002 33 106 1.6 4.8 0.00 0.00 0.00 54 1013.3
20260905174500 33 28 1.6 3.2 0.00 0.00 0.00 55 1013.3
20260905174000 33 162 1.6 4.8 0.00 0.00 0.00 56 1013.4
20260905173002 33 131 1.6 3.2 0.00 0.00 0.00 54 1013.5
20260905172501 33 20 1.6 3.2 0.00 0.00 0.00 55 1013.5
20260905172001 33 211 1.6 4.8 0.00 0.00 0.00 59 1013.6
20260905171503 33 123 0.0 4.8 0.00 0.00 0.00 55 1013.8
20260905171002 33 46 1.6 6.4 0.00 0.00 0.00 57 1013.8
20260905170502 32 137 1.6 6.4 0.00 0.00 0.00 57 1013.9
20260905170005 32 81 0.0 1.6 0.00 0.00 0.00 57 1014.1
20260905165502 32 162 0.0 4.8 0.00 0.00 0.00 58 1014.2
20260905165003 32 172 1.6 4.8 0.00 0.00 0.00 59 1014.2
20260905164502 31 103 1.6 4.8 0.00 0.00 0.00 57 1014.3
20260905164003 31 91 1.6 4.8 0.00 0.00 0.00 59 1014.3
20260905163503 31 76 1.6 4.8 0.00 0.00 0.00 59 1014.2
20260905163003 31 177 1.6 6.4 0.00 0.00 0.00 59 1014.1
20260905162502 31 335 1.6 6.4 0.00 0.00 0.00 62 1014.1
20260905162003 30 63 1.6 6.4 0.00 0.00 0.00 62 1014.1
20260905161503 30 47 1.6 4.8 0.00 0.00 0.00 63 1014.2
20260905160505 30 353 0.0 4.8 0.00 0.00 0.00 62 1014.2
20260905160004 29 106 0.0 3.2 0.00 0.00 0.00 64 1014.3
20260905155502 29 212 0.0 3.2 0.00 0.00 0.00 66 1014.5
20260905153503 29 43 0.0 1.6 0.00 0.00 0.00 67 1014.5
20260905153003 29 43 0.0 1.6 0.00 0.00 0.00 66 1014.5
20260905152503 29 43 0.0 1.6 0.00 0.00 0.00 64 1014.5
20260905152002 29 43 1.6 4.8 0.00 0.00 0.00 64 1014.4
20260905151505 29 42 1.6 4.8 0.00 0.00 0.00 62 1014.6
20260905151002 29 309 1.6 4.8 0.00 0.00 0.00 64 1014.6
20260905150502 28 98 1.6 4.8 0.00 0.00 0.00 64 1014.6
20260905150003 28 68 0.0 4.8 0.00 0.00 0.00 65 1014.5
20260905145503 28 348 0.0 4.8 0.00 0.00 0.00 68 1014.5
20260905145002 28 56 0.0 4.8 0.00 0.00 0.00 64 1014.5
20260905144503 28 48 0.0 4.8 0.00 0.00 0.00 66 1014.5
20260905144003 27 137 0.0 4.8 0.00 0.00 0.00 66 1014.6
20260905143502 27 198 0.0 4.8 0.00 0.00 0.00 68 1014.8
20260905143003 27 254 1.6 4.8 0.00 0.00 0.00 70 1015.0
20260905142502 26 5 0.0 4.8 0.00 0.00 0.00 69 1014.9
20260905142003 26 49 0.0 4.8 0.00 0.00 0.00 70 1014.9
20260905140502 25 122 0.0 3.2 0.00 0.00 0.00 76 1015.1
20260905140000 25 122 0.0 3.2 0.00 0.00 0.00 75 1015.1
20260905135502 25 139 0.0 3.2 0.00 0.00 0.00 77 1015.2
20260905135001 25 108 0.0 3.2 0.00 0.00 0.00 78 1015.3
20260905134000 25 116 0.0 3.2 0.00 0.00 0.00 77 1015.1
20260905133001 24 75 0.0 3.2 0.00 0.00 0.00 79 1015.3
20260905132502 24 124 0.0 3.2 0.00 0.00 0.00 80 1015.4
20260905131002 24 98 0.0 4.8 0.00 0.00 0.00 78 1015.6
20260905130501 23 108 0.0 3.2 0.00 0.00 0.00 79 1015.6
20260905130002 23 96 0.0 1.6 0.00 0.00 0.00 79 1015.4
20260905125504 23 84 0.0 3.2 0.00 0.00 0.00 80 1015.2
20260905125002 23 120 0.0 3.2 0.00 0.00 0.00 80 1015.2
20260905124503 23 77 0.0 1.6 0.00 0.00 0.00 82 1015.4
20260905123005 -17 0.0 0.0 0.00 0.00 0.00 1015.3
20260905122502 -17 0.0 0.0 0.00 0.00 0.00 1015.4
20260905122003 -17 0.0 0.0 0.00 0.00 0.00 1015.4
20260905121007 -17 0.0 0.0 0.00 0.00 0.00 1015.4
20260905120502 -17 0.0 0.0 0.00 0.00 0.00 1015.3
20260905120005 -17 0.0 0.0 0.00 0.00 0.00 1015.4
20260905115503 -17 0.0 0.0 0.00 0.00 0.00 1015.4
20260905115002 -17 0.0 0.0 0.00 0.00 0.00 1015.3
20260905114003 -17 0.0 0.0 0.00 0.00 0.00 1015.2
20260905113503 -17 0.0 0.0 0.00 0.00 0.00 1015.1
20260905112502 -17 0.0 0.0 0.00 0.00 0.00 1014.5
20260905112002 -17 0.0 0.0 0.00 0.00 0.00 1014.4
20260905111503 -17 0.0 0.0 0.00 0.00 0.00 1013.7
20260905111002 -17 0.0 0.0 0.00 0.00 0.00 1013.5
20260905105501 -17 0.0 0.0 0.00 0.00 0.00 1013.1
20260905105004 -17 0.0 0.0 0.00 0.00 0.00 1013.0
20260905104502 -17 0.0 0.0 0.00 0.00 0.00 1013.0
20260905104004 -17 0.0 0.0 0.00 0.00 0.00 1013.0
20260905103500 -17 0.0 0.0 0.00 0.00 0.00 1013.0
20260905103002 -17 0.0 0.0 0.00 0.00 0.00 1013.1
20260905102502 -17 0.0 0.0 0.00 0.00 0.00 1013.1
20260905102001 -17 0.0 0.0 0.00 0.00 0.00 1013.1
20260905101503 -17 0.0 0.0 0.00 0.00 0.00 1013.2
20260905101001 -17 0.0 0.0 0.00 0.00 0.00 1013.2
20260905100500 -17 0.0 0.0 0.00 0.00 0.00 1013.1
20260905095002 -17 0.0 0.0 0.00 0.00 0.00 1012.9
20260905094003 -17 0.0 0.0 0.00 0.00 0.00 1012.9
20260905093502 -17 0.0 0.0 0.00 0.00 0.00 1013.0
20260905093003 -17 0.0 0.0 0.00 0.00 0.00 1012.9
20260905092503 -17 225 0.0 0.0 0.00 0.00 0.00 95 1012.9
20260905092004 -17 225 0.0 0.0 0.00 0.00 0.00 95 1012.8
20260905091503 24 222 0.0 0.0 0.00 0.00 0.00 95 1012.9
20260905091002 24 222 0.0 0.0 0.00 0.00 0.00 95 1012.9
20260905090504 24 222 0.0 0.0 0.00 0.00 0.00 95 1012.8
20260905090002 24 222 0.0 0.0 0.00 0.00 0.00 95 1012.7
20260905085502 24 222 0.0 0.0 0.00 0.00 0.00 94 1012.8
20260905085003 24 222 0.0 0.0 0.00 0.00 0.00 94 1012.7
20260905084503 24 222 0.0 0.0 0.00 0.00 0.00 94 1012.6
20260905083504 24 222 0.0 1.6 0.00 0.00 0.00 94 1012.6
20260905083003 24 222 0.0 1.6 0.00 0.00 0.00 94 1012.6
20260905082002 25 222 0.0 0.0 0.00 0.00 0.00 94 1012.6
20260905081502 25 222 0.0 1.6 0.00 0.00 0.00 94 1012.5